EHI
0 0 0 0 0 0 0 0 0 0 0 0 0 0 0 0 0 0 0 0 0 0 0 0 0 0 0 0 0 0 0 0 0 0 0 0 0 0 0 0 0 0 0
0 0 0 0 0 0 0 0 0 0 0 0 0 0 0 0 0 0 0 0 0 0 0 0 0 0 0 0 0 0 0 0 0 0 0 0 0 0 0 0 0 0 0
0 0 0 0 0 0 0 0 0 0 0 0 0 0 0 0 0 0 0 0 0 0 0 0 0 0 0 0 0 0 0 0 0 0 0 0 0 0 0 0 0 0 0
0 0 0 0 0 0 0 0 0 0 0 0 0 0 0 0 0 0 0 0 0 0 0 0 0 0 0 0 0 0 0 0 0 0 0 0 0 0 0 0 0 0 0
0 0 0 0 0 0 0 0 0 0 0 0 0 0 0 0 0 0 0 0 0 0 0 0 0 0 0 0 0 0 0 0 0 0 0 0 0 0 0 0 0 0 0
0 0 0 0 0 0 0 0 0 0 0 0 0 0 0 0 0 0 0 0 0 0 0 0 0 0 0 0 0 0 0 0 0 0 0 0 0 0 0 0 0 0 0
1 1 1 1 1 1 0 0 0 0 0 0 0 0 0 0 0 0 0 0 0 0 0 0 0 0 0 0 0 0 0 0 0 0 0 0 0 0 0 0 0 0 0
2 2 2 2 2 2 1 0 0 0 0 0 0 0 0 0 0 0 0 0 0 0 0 0 0 0 0 0 0 0 0 0 0 0 0 0 0 0 0 0 0 0 0
3 3 3 3 3 3 2 1 0 0 0 0 0 0 0 0 0 0 0 0 0 0 0 0 0 0 0 0 0 0 0 0 0 0 0 0 0 0 0 0 0 0 0
3 3 4 3 3 3 3 2 1 0 0 0 0 0 0 0 0 0 0 0 0 0 0 0 0 0 0 0 0 0 0 0 0 0 0 0 0 0 0 0 0 0 0
3 4 4 3 3 3 3 2 1 0 0 0 0 0 0 0 0 0 0 0 0 0 0 0 0 0 0 0 0 0 0 0 0 0 0 0 0 0 0 0 0 0 0
3 3 3 2 2 2 3 2 1 0 0 0 0 0 0 0 0 0 0 0 0 0 0 0 0 0 0 0 0 0 0 0 0 0 0 0 0 0 0 0 0 0 0
3 3 2 1 1 1 1 2 2 1 1 1 2 1 0 0 0 0 0 0 0 0 0 0 0 0 0 0 0 0 0 0 0 0 0 0 0 0 0 0 0 0 0
3 3 2 1 0 0 0 1 2 2 2 3 3 2 1 0 0 0 0 0 0 0 0 0 0 0 0 0 0 0 0 0 0 0 0 0 0 0 0 0 0 0 0
3 3 2 1 0 1 0 0 1 2 2 2 3 3 2 1 0 0 0 0 0 0 0 0 0 0 0 0 0 0 0 0 0 0 0 0 0 0 0 0 0 0 0
3 3 2 1 0 0 0 0 0 1 1 1 1 2 2 1 0 0 0 0 0 0 0 0 0 0 0 0 0 0 0 0 0 0 0 0 0 0 0 0 0 0 0
3 3 2 1 0 0 0 0 0 0 0 0 0 1 1 0 0 0 0 0 0 0 0 0 0 0 0 0 0 0 0 0 0 0 0 0 0 0 0 0 0 0 0
3 2 1 0 0 0 0 0 0 0 0 0 0 0 0 0 0 0 0 0 0 0 0 0 0 0 0 0 0 0 0 0 0 0 0 0 0 0 0 0 0 0 0
2 1 0 0 0 0 0 0 0 0 0 0 0 0 0 0 0 0 0 0 0 0 0 0 0 0 0 0 0 0 0 0 0 0 0 0 0 0 0 0 0 0 0
2 1 0 0 0 0 0 0 0 0 0 0 0 0 0 0 0 0 0 0 0 0 0 0 0 0 0 0 0 0 0 0 0 0 0 0 0 0 0 0 0 0 0
1 0 0 0 0 0 0 0 0 0 0 0 0 0 0 0 0 0 0 0 0 0 0 0 0 0 0 0 0 0 0 0 0 0 0 0 0 0 0 0 0 0 0
0 0 0 0 0 0 0 0 0 0 0 0 0 0 0 0 0 0 0 0 0 0 0 0 0 0 0 0 0 0 0 0 0 0 0 0 0 0 0 0 0 0 0
0 0 0 0 0 0 0 0 0 0 0 0 0 0 0 0 0 0 0 0 0 0 0 0 0 0 0 0 0 0 0 0 0 0 0 0 0 0 0 0 0 0 0
0 0 0 0 0 0 0 0 0 0 0 0 0 0 0 0 0 0 0 0 0 0 0 0 0 0 0 0 0 0 0 0 0 0 0 0 0 0 0 0 0 0 0
0 0 0 0 0 0 0 0 0 0 0 0 0 0 0 0 0 0 0 0 0 0 0 0 0 0 0 0 0 0 0 0 0 0 0 0 0 0 0 0 0 0 0
0 0 0 0 0 0 0 0 0 0 0 0 0 0 0 0 0 0 0 0 0 0 0 0 0 0 0 0 0 0 0 0 0 0 0 0 0 0 0 0 0 0 0
Wind_Speed
4 4 4 4 4 4 4 4 3 3 3 3 3 3 4 4 4 4 3 3 4 3 3 3 3 2 2 2 2 2 2 3 3 1 1 2 3 3 4 4 4 4 5
4 4 4 4 4 4 3 3 3 3 3 3 3 3 3 3 3 4 4 3 3 3 3 3 3 2 2 1 2 2 2 3 3 3 1 2 3 3 4 5 5 5 5
3 4 4 4 4 4 3 3 3 3 3 3 3 3 3 2 3 3 3 3 3 3 3 3 3 3 2 1 2 2 1 2 2 3 2 1 2 2 3 5 6 4 5
4 4 4 4 4 4 3 3 3 3 3 3 3 3 2 2 3 3 3 3 3 3 2 2 2 3 3 3 2 3 3 3 4 4 3 2 2 2 2 3 4 5 5
5 5 4 4 4 4 4 3 3 3 3 3 4 3 2 2 2 4 4 4 4 4 3 3 3 4 5 4 3 3 4 4 4 4 3 3 2 2 1 1 3 3 5
5 5 5 5 5 4 4 4 5 4 4 4 4 3 3 2 4 6 6 5 5 5 4 4 4 5 8 9 9 8 6 5 5 4 3 3 2 1 1 2 2 2 2
5 5 5 5 5 5 5 5 5 5 5 5 4 4 4 4 6 7 8 6 5 4 4 4 4 5 7 7 10 12 11 10 7 5 5 3 2 1 2 3 2 2 2
6 6 5 6 6 5 5 5 5 5 5 4 4 4 5 5 8 9 10 7 6 6 5 5 5 5 6 7 9 9 8 8 7 5 5 4 3 2 2 3 3 4 3
6 5 5 6 6 6 6 5 5 5 5 5 5 5 6 6 9 10 9 6 6 6 5 6 6 6 7 9 9 9 8 7 10 13 11 10 10 8 5 4 3 3 3
6 6 6 6 6 6 6 5 5 6 6 6 6 6 6 6 7 9 8 6 6 6 5 6 8 7 7 8 7 8 8 5 5 7 8 9 8 9 9 4 3 3 2
6 7 7 6 6 6 6 5 6 6 7 6 7 6 6 6 7 9 8 5 6 6 5 4 5 9 10 9 8 6 7 6 6 6 6 6 6 6 6 5 4 3 3
7 7 7 6 6 6 7 6 6 6 7 6 6 6 5 5 6 8 9 9 7 7 5 5 6 10 11 10 8 9 10 8 6 6 6 5 5 4 4 5 5 5 3
8 8 7 7 6 6 7 6 5 5 5 4 4 5 4 4 5 9 10 10 10 7 6 9 10 11 10 9 11 11 8 6 5 5 5 4 3 3 3 3 5 5 5
8 7 7 7 7 6 5 4 4 4 4 4 5 5 4 4 4 4 5 6 9 8 7 9 12 12 9 9 8 7 6 5 5 5 4 3 3 3 4 3 3 3 3
8 7 7 7 7 7 6 5 4 3 3 5 4 5 5 4 3 5 5 5 5 5 6 5 5 5 6 5 5 5 5 5 5 4 3 4 4 4 3 3 3 3 3
7 6 5 6 6 6 6 7 13 10 11 10 8 7 6 7 9 10 10 10 9 9 7 5 5 5 5 5 5 4 4 4 3 3 3 3 3 3 3 2 2 2 2
7 6 5 6 6 6 5 6 7 8 12 12 10 10 10 10 11 11 11 11 9 8 6 5 4 4 4 4 3 3 3 2 2 2 3 2 2 2 2 2 2 2 2
7 8 7 6 6 6 5 5 6 6 5 5 6 9 10 10 10 10 10 9 6 5 4 4 4 3 3 3 3 2 2 2 2 2 2 2 2 2 1 1 1 2 2
6 5 6 6 6 6 5 6 6 6 5 5 4 5 7 8 8 7 6 4 5 4 3 3 3 3 3 3 2 2 2 2 2 1 1 1 1 1 1 1 1 1 1
6 10 9 7 6 6 6 6 6 6 5 5 4 4 3 4 3 3 2 3 4 3 3 3 3 3 3 2 2 2 2 2 1 1 0 0 0 0 0 1 1 1 1
6 8 11 7 6 5 5 5 5 5 5 4 3 3 4 4 4 3 2 2 3 3 3 3 3 3 2 2 2 3 3 2 1 1 1 1 1 0 1 1 1 1 2
6 6 5 6 5 5 5 5 5 5 5 5 3 3 4 3 3 2 2 2 2 2 2 3 2 2 3 3 3 3 3 2 2 2 2 1 1 1 1 1 1 2 2
6 6 6 5 5 6 5 5 5 4 4 4 4 3 3 3 3 2 2 2 2 2 2 3 3 2 2 3 3 4 4 3 3 3 2 2 2 1 1 1 2 3 3
6 6 6 5 5 4 4 4 4 4 4 4 3 3 3 3 3 3 3 2 2 2 2 3 3 4 4 3 3 3 3 3 3 3 4 3 2 2 2 2 3 4 4
5 5 5 4 4 4 4 4 3 3 3 4 4 3 3 3 3 3 3 3 3 3 3 3 3 3 5 5 4 4 4 5 4 3 3 3 3 3 3 3 3 4 4
4 4 4 3 3 3 3 3 3 4 3 3 4 4 4 4 4 4 3 3 3 3 4 3 5 5 5 5 6 5 5 5 5 5 3 3 3 3 3 3 4 4 5
Wind_Direction
173 176 174 169 163 160 166 179 180 178 175 178 177 175 174 174 173 173 181 179 184 191 187 185 199 194 188 190 179 170 171 163 175 169 56 27 41 51 54 62 69 72 70
172 163 167 158 152 153 164 170 165 168 164 164 164 165 174 173 170 174 182 180 183 192 191 179 188 175 176 177 168 175 175 170 166 169 115 43 49 53 61 64 62 72 74
160 157 153 152 152 157 163 156 151 154 150 150 153 160 164 165 167 172 171 164 169 181 181 177 176 157 161 154 147 147 145 140 136 143 128 67 59 60 67 66 63 52 66
144 145 146 150 148 146 137 130 136 140 141 139 133 136 142 144 142 141 142 136 135 133 132 142 155 158 163 154 138 132 124 115 112 116 115 87 65 57 74 79 71 53 50
136 137 141 132 123 119 114 111 110 110 116 114 112 110 113 125 135 137 134 132 125 114 100 97 99 106 112 121 126 131 130 123 116 113 108 96 80 76 79 74 94 84 55
137 134 122 116 113 110 107 101 96 90 89 93 96 101 99 101 109 121 126 122 118 117 112 95 85 83 89 91 93 93 104 122 129 123 116 115 109 98 89 103 110 106 82
136 130 124 124 120 117 115 106 101 95 90 89 89 92 90 85 96 107 111 110 105 100 98 95 91 82 85 89 82 77 72 78 97 122 118 118 119 137 126 103 83 82 92
130 125 122 122 118 113 107 102 98 94 93 89 85 85 84 81 92 101 101 94 87 80 78 88 95 86 92 100 92 81 71 61 66 77 88 83 81 83 97 111 109 95 76
128 125 124 125 123 118 112 106 99 99 93 88 85 83 83 78 84 93 97 95 88 78 73 76 87 86 90 102 101 96 84 70 67 74 74 72 70 70 83 96 92 93 73
137 129 123 122 124 122 118 110 100 98 95 90 80 76 83 82 81 90 98 103 99 89 75 68 75 88 89 98 105 108 100 83 80 73 64 57 58 57 57 64 91 95 87
124 117 116 118 120 117 111 105 104 102 96 90 86 75 72 77 80 83 92 104 110 102 90 78 75 86 86 86 92 99 111 110 93 86 76 65 58 55 51 50 52 76 86
118 115 114 114 114 113 111 105 103 107 105 100 94 82 66 65 75 83 87 94 104 103 99 93 88 87 87 86 87 95 100 97 92 86 78 67 60 52 46 48 55 60 59
120 116 112 108 105 111 116 116 110 106 109 108 106 99 86 76 78 84 90 93 95 96 97 99 94 89 86 81 79 87 90 91 93 89 83 70 53 44 52 57 53 56 59
121 117 115 112 104 97 95 102 110 115 119 118 115 111 104 92 86 89 94 95 94 94 93 89 85 80 77 75 72 70 68 77 88 89 85 72 61 58 52 45 49 43 49
120 118 116 111 110 99 85 71 87 78 117 131 130 130 128 119 102 109 112 106 109 112 106 88 80 80 79 75 72 68 68 71 73 74 81 79 70 62 49 37 43 48 50
123 120 118 116 112 111 107 83 60 70 77 85 96 108 95 105 112 105 102 103 106 113 100 97 94 92 94 93 91 81 71 69 70 79 81 79 75 69 61 47 47 47 42
125 125 120 118 118 118 116 115 102 71 67 74 85 96 103 111 110 110 108 102 100 103 95 100 102 103 102 101 98 94 87 75 76 85 85 80 79 73 68 54 45 41 26
117 120 122 121 119 118 118 118 119 119 107 76 65 84 100 108 110 113 113 102 88 80 98 110 111 114 116 114 110 103 98 91 85 86 85 81 77 77 67 46 34 24 9
117 117 116 114 113 114 113 112 112 112 112 106 94 78 87 97 95 96 103 105 118 112 110 114 122 129 130 129 124 117 112 106 99 97 88 81 84 88 68 29 14 12 359
113 120 120 117 116 116 118 118 118 119 119 121 122 124 120 104 102 98 88 108 119 126 130 134 138 142 143 145 144 140 135 131 129 126 123 115 116 123 44 348 337 335 331
115 122 120 115 116 121 124 125 126 128 129 130 130 136 139 132 134 133 130 133 144 151 153 153 153 156 159 161 162 163 165 172 182 196 202 207 212 236 274 291 304 313 319
115 118 119 118 118 119 121 124 128 131 135 134 126 119 126 122 131 135 145 156 159 161 165 165 173 181 185 185 184 185 189 196 202 206 211 216 219 239 271 298 311 313 315
114 116 114 114 117 121 120 122 127 135 141 142 143 142 144 145 147 153 166 169 162 163 168 172 180 193 198 200 200 197 202 211 213 207 207 214 223 236 259 279 291 299 306
117 120 122 122 123 128 130 132 136 144 149 151 155 160 164 166 171 179 185 181 180 182 183 188 198 206 207 206 207 210 219 219 211 209 210 216 227 243 256 270 280 289 293
115 118 123 127 132 135 139 145 150 157 163 167 170 174 178 181 187 195 197 194 194 202 207 206 209 214 216 218 219 219 212 209 210 206 207 216 230 241 256 269 277 287 292
119 124 127 132 138 146 154 161 167 173 180 184 185 187 190 195 200 205 205 203 205 212 216 217 220 221 223 225 227 222 211 209 208 205 207 220 232 243 253 263 276 281 289